STARLINK-34102

Satellite information

Favourite Embed

Satellite Type and Status

PAYLOADIN ORBIT

Key statistics

Satellite STARLINK-34102 at a glance.

Uptime

223

Days in orbit

Revolutions

≈ 15.3

Per day

Orbit

LEO

Low Earth Orbit

Inclination

43.0

Latest

Satellite identification and parameters

Extended collection of information and parameters for STARLINK-34102.

Object identification

Identified? True

Debris? False

Object name: STARLINK-34102

International designator: 2025-092C

Object number (NORAD): 63806

Object ID (CCSDS): 63806

Country: UNITED STATES OF AMERICA (US)

Current information (Y/N): Y

RCS size: LARGE

Orbital parameters

Period: 94.267 minutes

Inclination: 43.0032 deg

SMA: 6861.198 km

Apoapsis: 484.562 km

Periapsis: 481.564 km

RAAN: 306.4939 deg

Eccentricy: 0.00021848

Argument of periapsis: 262.8008 deg

Mean anomaly: 97.2595 deg

Mean motion: 15.27575927 rev/day

Mean motion (dot): 0.00035173 rev/day2

B* drag term: 0.0012817371 1/REarth

Two-line elements (TLE)

Creation date: Dec. 12, 2025, 10:14 a.m.

Reference frame: TEME

Reference center: EARTH

Epoch: Dec. 12, 2025, 6:53 a.m. UTC

TLE line 0: 0 STARLINK-34102

TLE line 1: 1 63806U 25092C 25346.28698949 .00035173 00000-0 12817-2 0 9996

TLE line 2: 2 63806 43.0032 306.4939 0002185 262.8008 97.2595 15.27575927 35299

Live tracking on map

Real-time ground track for satellite STARLINK-34102.

In-orbit conjunctions

There are no conjunctions computed for STARLINK-34102, at the moment. Check back to stay up to date, as we update our databases every day.

Go to all conjunctions

Associated space launch

A batch of 29 satellites for the Starlink mega-constellation - SpaceX's project for space-based Internet communication system.

STARLINK-34102 was lifted into orbit during the mission ‘Falcon 9 Block 5 | Starlink Group 6-84’, on board a Falcon 9 space rocket.

The launch took place on May 4, 2025, 8:54 a.m. from Launch Complex 39A.

For more information about the launch, click the button.

Launch to space Falcon 9 Block 5 | Starlink Group 6-84
Falcon 9 Block 5 | Starlink Group 6-84

Agency: SpaceX

Status: Launch Successful

Launch date: May 4, 2025, 8:54 a.m. UTC

Rocket: Falcon 9

Launch pad: Launch Complex 39A

Location: Kennedy Space Center, FL, USA

...

Latest news about this satellite

News about space launch
Live coverage: SpaceX to launch 29 Starlink satellites on Falcon 9 rocket from NASA’s Kennedy Space Center

The ability to launch 29 Starlink V2 Mini satellites comes from a shift by SpaceX to an “optimized” version of the spacecraft introduced in 2024. Liftoff from pad 39A at NASA’s Kennedy Space Center is targeting 4:53 a.m. EDT (0853 UTC).

News about space launch
Launch Roundup: Starlink missions fill launch manifest, Biomass and Alpha launch

This week’s schedule includes up to six Starlink launches from Florida and California. Arianespace launched… The post Launch Roundup: Starlink missions fill launch manifest, Biomass and Alpha launch appeared first on NASASpaceFlight.com.


Newsletter sign-up

Weekly statistics, charts and insights to help you stay on top of the space industry.